Location: Grächen
(46.1964°N, 7.8395°E)
Time: 10:42:04
(UTC+00:00)

Daily predictions for brighter satellites

Satellite Brightness Start Highest point End
(mag) Time Altitude Azimuth Time Altitude Azimuth Time Altitude Azimuth
Timation 1 Rocket 4.4 19:27:35 10° NNW 19:33:38 79° ENE 19:39:39 10° SSE
Cosmos 968 Rocket 4.1 19:30:36 10° SSE 19:35:15 35° ESE 19:39:53 10° NE
Cosmos 1328 Rocket 4.5 19:32:44 10° SSE 19:36:28 29° E 19:40:13 10° NNE
Cosmos 1741 Rocket 4.4 19:32:57 10° SSW 19:38:08 70° WNW 19:43:22 10° NNE
Cosmos 2016 Rocket 4.4 19:32:46 10° SSW 19:39:06 75° W 19:45:31 10° N
Resurs 1-3 3.9 19:36:47 10° S 19:41:09 70° WSW 19:45:33 10° NNW
Cosmos 2263 Rocket 4.4 19:38:46 10° N 19:41:25 13° NE 19:44:05 10° ENE
USA 238 DEB 4.1 19:34:36 10° NW 19:41:52 70° NE 19:49:31 10° SE
USA 238 4.1 19:34:43 10° NW 19:41:58 70° NE 19:49:37 10° SE
Cosmos 405 4.3 19:39:58 10° NNE 19:42:46 23° ENE 19:45:33 10° SE
BREEZE-M DEB (TANK) 2.6 19:42:21 10° WNW 19:44:41 39° N 19:47:00 10° ENE
CENTAUR R/B 3.4 19:37:34 10° NW 19:45:48 83° SW 19:54:53 10° SSE
Cosmos 1400 Rocket 4.0 19:42:37 10° NNW 19:46:17 42° W 19:49:57 10° SSW
Cosmos 1743 4.4 19:45:05 10° NNE 19:47:48 19° ENE 19:50:31 10° ESE
ISS -2.1 19:45:14 10° W 19:48:22 35° N 19:51:30 10° ENE
Cosmos 1544 2.9 19:45:44 10° N 19:49:18 82° E 19:52:49 10° S
Cosmos 2233 Rocket 4.0 19:43:01 10° S 19:49:19 80° E 19:55:40 10° N
Cosmos 2227 Rocket 2.8 19:45:55 10° NNW 19:51:22 45° NE 19:56:42 10° SE
Ariane Rocket 3.1 19:47:38 10° SSE 19:52:38 63° ENE 19:57:40 10° N
SL-4 R/B 3.1 19:48:44 10° WNW 19:53:13 48° NNE 19:57:26 10° E
IGS 5A 4.5 19:50:28 10° S 19:54:27 45° W 19:58:28 10° NNW
SPOT 3 Rocket 4.1 19:50:01 10° SE 19:54:51 43° ENE 19:59:42 10° N
Terra 3.6 19:51:41 10° ESE 19:54:54 18° ENE 19:58:08 10° NNE
Resurs 01 Rocket 1.6 19:51:35 10° SSE 19:55:59 84° ENE 20:00:25 10° NNW
Cosmos 1666 Rocket 3.6 19:51:40 10° N 19:56:04 73° E 20:00:28 10° SSE
PSLV R/B 3.9 19:53:15 10° NNE 19:57:20 90° SW 20:01:22 10° SSW
EXPRESS MD2 4.1 19:53:35 10° WNW 20:00:21 66° N 20:03:48 10° E
Cosmos 1656 3.6 19:57:05 10° SSW 20:02:37 68° ESE 20:08:07 10° NNE
BREEZE M DEB (TANK) 3.4 20:00:45 10° WNW 20:04:01 70° NNE 20:14:23 10° E
Genesis I 3.3 20:00:16 10° SW 20:04:16 88° NW 20:08:23 10° NE
Meteor 1-10 Rocket 4.3 19:58:58 10° S 20:04:24 61° E 20:09:55 10° NNE
Cosmos 1980 Rocket 3.7 20:01:44 11° SE 20:04:52 18° E 20:08:28 10° ENE
Cosmos 1340 4.0 20:03:28 13° SE 20:05:52 23° E 20:08:52 10° NE
Cosmos 1570 Rocket 4.0 20:02:01 10° NNW 20:07:17 87° WSW 20:12:28 10° SSE
Cosmos 1633 Rocket 3.0 20:04:33 10° N 20:08:58 82° E 20:13:20 10° S
Cosmos 1464 Rocket 4.5 20:04:53 10° SSE 20:10:40 42° E 20:16:25 10° NNE
Cosmos 1151 Rocket 3.2 20:08:16 10° SSW 20:12:33 74° W 20:16:50 10° N
BREEZE-M DEB (TANK) 3.9 20:11:04 10° W 20:14:25 78° NNW 20:25:21 10° ENE
Cosmos 1470 Rocket 3.7 20:10:55 10° N 20:15:13 56° ENE 20:18:43 15° SSE
Cosmos 44 3.6 20:13:51 10° NW 20:18:04 51° WSW 20:21:44 13° SSE
Meteor 1-27 Rocket 4.0 20:12:54 10° SSE 20:18:24 51° E 20:24:02 10° NNE
SJ 16-02 3.2 20:19:14 13° ESE 20:20:06 13° E 20:22:10 10° ENE
Cosmos 1315 Rocket 3.2 20:18:11 10° NNW 20:22:15 63° W 20:26:14 10° S
Cosmos 1486 Rocket 4.4 20:17:43 10° S 20:22:44 44° ESE 20:27:44 10° NNE
USA 215 4.2 20:19:47 10° ENE 20:24:53 24° SE 20:29:57 10° S
Cosmos 1697 Rocket 2.9 20:20:07 10° S 20:25:34 50° ESE 20:31:01 10° NE
Meteor 1-11 Rocket 3.9 20:20:40 10° N 20:26:40 81° ENE 20:31:59 13° SSE
Spot 2 Rocket 3.8 20:22:56 16° SE 20:26:45 51° ENE 20:31:38 10° N
Cosmos 2297 Rocket 2.4 20:23:32 10° NNW 20:29:10 69° WSW 20:33:58 14° SSE
Cosmos 1515 Rocket 3.6 20:26:44 13° S 20:30:34 58° E 20:34:54 10° NNE
Nadezhda 4 Rocket 4.3 20:27:31 10° N 20:33:36 51° ENE 20:38:01 18° SE
BREEZE-M DEB (TANK) 2.5 20:32:05 10° W 20:34:46 52° NNW 20:36:55 10° ENE
USA 245 4.4 20:33:02 14° SSE 20:37:45 88° WSW 20:44:03 10° NNW
ARIANE 5 R/B 3.6 20:36:20 19° ESE 20:38:54 34° ENE 20:42:59 10° N
SPOT 1/Viking Rocket 4.4 20:36:21 10° S 20:41:21 48° W 20:46:21 10° NNW
Cosmos 1072 Rocket 4.4 20:36:35 10° S 20:42:40 79° E 20:48:47 10° N
ATLAS 2AS CENTAUR R/B 3.7 20:40:06 15° SSE 20:45:24 31° ESE 20:51:51 10° NE
CARTOSAT-1 3.9 20:42:03 15° S 20:45:30 64° W 20:49:49 10° NNW
NOSS 3-4 (A) 3.2 20:43:54 10° SSW 20:49:34 79° SE 20:55:44 10° NE
NOSS 3-4 (C) 3.2 20:43:57 10° SSW 20:49:39 79° SE 20:55:50 10° NE
Cosmos 1503 Rocket 4.3 20:47:24 18° S 20:50:56 46° ESE 20:56:00 10° NNE
Aureole 1 Rocket 2.1 20:52:59 20° SSW 20:55:08 71° ESE 20:58:11 10° NNE
Cosmos 1378 4.4 20:59:52 24° E 21:00:14 24° E 21:03:14 10° NE
Cosmos 2219 3.4 20:54:41 10° NNW 21:00:17 65° WSW 21:03:55 22° S
RESURS DK-1 3.9 21:00:59 19° E 21:00:59 19° E 21:03:36 10° ENE
Cosmos 921 Rocket 3.3 20:56:49 10° NNW 21:01:19 60° ENE 21:03:26 29° SE
USA 267 4.3 20:55:18 10° E 21:01:24 43° NNE 21:07:30 10° NW
CZ-4B R/B 4.3 21:00:28 10° NNW 21:02:22 15° WNW 21:04:16 10° W
SPOT 5 3.2 21:03:10 22° S 21:06:43 76° WSW 21:11:58 10° NNW
Cosmos 1536 3.7 21:04:20 10° NNW 21:08:10 45° W 21:10:42 19° SSW
Cosmos 389 Rocket 2.9 21:05:06 10° NNW 21:08:32 57° W 21:10:03 30° SSW
Cosmos 2034 Rocket 4.0 21:05:04 17° S 21:10:04 82° E 21:16:26 10° N
Cosmos 1184 Rocket 2.9 21:09:25 30° SSW 21:10:42 63° WNW 21:13:44 10° N
Cosmos 2082 3.7 21:05:04 10° NNW 21:10:44 83° ENE 21:13:46 29° SSE
Helios 1A Rocket 3.6 21:08:57 21° SSW 21:11:18 46° W 21:15:11 10° NNW
Meteor 2-14 Rocket 4.4 21:05:48 10° N 21:11:55 81° E 21:15:34 26° SSE
Okean 1 3.2 21:14:48 33° S 21:16:31 80° E 21:20:32 10° N
Cosmos 2292 Rocket 3.3 21:13:39 10° N 21:16:46 40° ENE 21:16:59 39° E
ERS-1 Rocket 3.1 21:13:55 25° S 21:16:52 69° WSW 21:21:55 10° NNW
Geosat 4.0 21:17:27 31° SE 21:19:55 79° ENE 21:24:58 10° NNW
Meteor 1-19 Rocket 4.0 21:17:59 23° S 21:21:27 81° E 21:26:52 10° NNE
ATLAS 3B R/B 3.9 21:15:45 10° NNW 21:22:31 39° NE 21:29:10 11° ESE
Cosmos 1743 4.1 21:20:09 10° NNW 21:23:35 33° W 21:25:37 19° SW
ISS -2.2 21:22:33 10° WNW 21:25:40 34° N 21:28:01 15° ENE
Cosmos 2263 Rocket 2.5 21:21:06 10° NNW 21:26:38 58° ENE 21:29:18 30° SE
Cosmos 2344 3.4 21:21:35 10° SW 21:29:07 87° SE 21:36:50 10° NE
Terra 2.1 21:29:55 30° S 21:32:12 61° W 21:36:56 10° NNW
SL-4 R/B 2.1 21:28:31 10° WNW 21:32:59 66° SSW 21:33:59 47° SSE
Resurs 01 Rocket 4.4 21:32:14 10° W 21:33:04 10° W 21:33:55 10° WNW
Cosmos 2227 Rocket 3.5 21:30:18 10° NW 21:35:14 31° WSW 21:38:32 18° SSW
Cosmos 1975 2.9 21:32:16 10° N 21:36:20 65° E 21:37:13 49° SE
SWAS 4.4 21:32:30 10° NNW 21:36:50 85° WSW 21:38:01 48° SSE
Meteor 2-4 Rocket 3.8 21:37:43 34° SSE 21:40:15 64° E 21:45:55 10° NNE
Cosmos 2279 Rocket 4.4 21:39:47 32° SE 21:42:06 46° E 21:47:59 10° NNE
Cosmos 1733 Rocket 3.6 21:38:24 10° N 21:42:43 47° ENE 21:43:44 39° ESE
Cosmos 2369 3.9 21:40:08 10° SW 21:45:44 69° WNW 21:51:25 10° NNE
Cosmos 1980 Rocket 2.3 21:43:23 15° SSW 21:48:10 76° WNW 21:53:51 10° NNE
Meteor 2-8 Rocket 4.4 21:47:03 34° S 21:49:47 71° E 21:55:52 10° NNE
Cosmos 1862 Rocket 4.0 21:51:03 43° ESE 21:51:38 45° E 21:55:55 10° NNE
Cosmos 2322 Rocket 3.3 21:53:11 25° ESE 21:53:29 25° ESE 21:58:00 10° NE
Cosmos 1354 Rocket 4.3 21:51:12 19° SW 21:55:01 65° WNW 22:00:19 10° NNE
Cosmos 1805 4.4 21:51:44 10° NNE 21:55:12 29° ENE 21:55:31 29° E
Cosmos 2228 Rocket 3.7 21:55:45 28° SW 21:57:56 53° WNW 22:02:25 10° N
SJ 16-02 1.6 21:56:08 31° SW 21:58:04 65° WNW 22:02:26 10° NNE
Meteor 1-18 Rocket 4.3 21:56:11 29° SSW 21:59:16 75° WNW 22:04:57 10° N
ERS-2 4.3 21:56:52 10° NE 21:58:20 15° ENE 21:58:20 15° ENE
Cosmos 1777 Rocket 4.0 22:01:35 33° SSW 22:03:59 84° WNW 22:09:15 10° NNE
USA 81 4.1 22:03:54 38° SSW 22:05:58 77° W 22:11:17 10° N
SAR-Lupe-4 4.5 22:02:44 10° N 22:06:12 45° WNW 22:07:07 36° WSW
Meteor 2-15 4.3 22:04:55 37° S 22:07:32 88° E 22:13:39 10° N
Cosmos 1844 Rocket 4.1 22:03:22 10° N 22:08:17 30° NE 22:11:24 18° E
USA 215 3.1 22:01:57 10° NE 22:08:33 80° SE 22:15:07 10° SW
Cosmos 1697 Rocket 4.5 22:04:47 10° WSW 22:09:45 31° NW 22:14:45 10° N
Cosmos 2227 4.2 22:04:38 10° NNW 22:10:26 83° ENE 22:12:24 43° SE
Iridium 2 3.6 22:07:03 10° N 22:10:49 73° E 22:10:50 73° E
Cosmos 1092 Rocket 4.5 22:06:31 10° NNW 22:12:29 52° W 22:15:26 29° SSW
ARIANE 5 R/B 4.2 22:13:52 22° SW 22:15:23 27° W 22:19:13 10° NW
Meteor 1-4 Rocket 3.1 22:13:21 10° N 22:16:23 45° ENE 22:16:23 45° ENE
Cosmos 1634 Rocket 4.2 22:14:36 29° SSW 22:17:55 65° W 22:24:06 10° N
Cosmos 2142 Rocket 4.5 22:16:09 39° S 22:18:48 87° E 22:25:14 10° N
Cosmos 1726 3.7 22:16:36 10° NNE 22:19:37 24° ENE 22:19:37 24° ENE
Cosmos 1655 Rocket 4.4 22:15:16 10° N 22:21:22 51° ENE 22:23:33 36° SE
Cosmos 2219 Rocket 4.3 22:25:00 12° E 22:25:03 12° E 22:26:54 10° ENE
SL-16 R/B 2.2 22:27:38 49° SSE 22:28:59 65° ESE 22:34:37 10° NNE
Iridium 4 Rocket 3.5 22:25:45 10° N 22:30:04 52° E 22:30:35 49° ESE
Cosmos 1733 3.1 22:29:44 10° N 22:33:22 78° NE 22:33:22 78° NE
Cosmos 44 Rocket 3.0 22:30:22 10° NW 22:35:05 78° WSW 22:35:37 68° S
ATLAS CENTAUR R/B 3.9 22:31:17 10° NNW 22:35:08 22° NE 22:38:52 10° E
ATLAS 2AS CENTAUR R/B 3.1 22:28:05 10° SW 22:35:53 73° NW 22:43:27 10° NE
Cosmos 1346 Rocket 3.7 22:35:44 38° WSW 22:36:28 43° WNW 22:40:20 10° N
RESURS DK-1 3.3 22:36:47 30° WSW 22:38:17 43° WNW 22:42:15 10° NNE
Cosmos 1538 Rocket 4.1 22:34:04 10° NNW 22:39:17 65° WSW 22:40:18 53° SSW
ADEOS Rocket 3.4 22:40:53 35° ESE 22:42:49 49° ENE 22:48:24 10° N
USA 267 3.2 22:40:37 31° SE 22:44:03 90° SSW 22:50:39 10° NW
Okean 1-7 2.9 22:54:08 75° ESE 22:54:18 77° E 22:58:42 10° NNE
SL-24 R/B - RUBIN 2 3.8 22:51:01 10° NW 22:55:13 56° WSW 22:55:13 56° WSW
GENESIS II 4.3 22:55:49 71° NNE 22:55:49 71° NNE 22:59:21 10° NE
Cosmos 923 Rocket 4.0 22:52:37 10° NNW 22:57:59 83° ENE 22:59:07 57° SSE
Cosmos 1703 Rocket 3.4 23:00:20 78° SSE 23:00:33 83° E 23:05:01 10° N
Cosmos 2360 Rocket 2.3 23:00:22 51° SE 23:01:10 55° ESE 23:06:40 10° NE
ISS -1.9 22:59:20 10° WNW 23:00:56 26° WNW 23:00:56 26° WNW
Cosmos 1842 3.8 23:06:04 48° ENE 23:06:04 48° ENE 23:09:26 10° NNE
Cosmos 1818 4.3 23:01:09 10° NNW 23:06:28 48° NE 23:09:12 26° ESE
Cosmos 2242 Rocket 3.5 23:09:15 74° SE 23:09:32 78° E 23:14:07 10° NNE
Cosmos 1441 Rocket 4.4 23:09:48 32° W 23:10:00 32° WNW 23:13:23 10° N
Cosmos 2263 Rocket 3.6 23:05:50 10° NW 23:10:07 23° WSW 23:10:59 22° WSW
ATLAS 3B R/B 2.9 23:06:26 10° NW 23:13:45 68° WSW 23:16:23 43° S
Cosmos 1937 Rocket 3.6 23:13:32 54° SE 23:14:05 58° ESE 23:19:16 10° NNE
ASTEX 1 4.2 23:09:42 10° NNE 23:14:15 37° E 23:14:54 35° ESE
NOSS 2-1 (E) 3.9 23:15:19 42° NNW 23:15:19 42° NNW 23:18:06 10° NNE
ALOS 2 2.8 23:15:18 56° WSW 23:15:24 56° W 23:19:44 10° NNW
Cosmos 1782 Rocket 3.4 23:11:07 10° N 23:15:30 86° E 23:15:37 83° SE
Meteor 1-23 Rocket 4.2 23:16:52 54° S 23:18:18 89° E 23:24:11 10° N
Cosmos 2112 Rocket 4.0 23:13:22 10° NNW 23:18:45 81° ENE 23:19:51 57° SE
Cosmos 2266 Rocket 4.2 23:12:39 10° NNW 23:18:52 62° W 23:20:37 45° SSW
Cosmos 1680 Rocket 3.4 23:16:10 10° NNW 23:21:30 83° WSW 23:22:24 62° S
Okean 2 Rocket 4.4 23:19:30 10° N 23:23:33 31° ENE 23:24:33 28° E
Cosmos 1908 Rocket 4.3 23:23:00 10° NNW 23:27:02 38° W 23:27:06 38° W
Okean 3 3.6 23:26:58 63° W 23:27:03 63° W 23:31:16 10° N
Cosmos 1900 4.5 23:27:26 56° SE 23:27:39 57° ESE 23:32:41 10° NE
Cosmos 2333 Rocket 2.5 23:26:56 47° SE 23:27:44 51° ESE 23:33:12 10° NE
ERS-2 3.2 23:29:26 10° N 23:32:44 36° WNW 23:32:44 36° WNW
Cosmos 2322 4.3 23:32:07 39° SE 23:32:56 41° ESE 23:38:16 10° NE
Cosmos 1898 Rocket 3.6 23:35:22 50° SW 23:36:40 70° WNW 23:42:00 10° NNE
Cosmos 2322 Rocket 2.7 23:34:57 34° WSW 23:37:09 54° WNW 23:42:41 10° NNE
Cosmos 1766 4.5 23:35:12 10° NNW 23:38:21 32° WNW 23:38:21 32° WNW
Cosmos 1300 Rocket 3.4 23:35:40 10° N 23:40:02 83° E 23:40:11 80° SE
Sich 1 Rocket 3.8 23:37:15 10° N 23:41:36 58° ENE 23:42:02 55° ESE
Cosmos 858 Rocket 4.4 23:41:33 61° SSW 23:42:31 89° ESE 23:47:50 10° NNE
Resurs 1-4 Rocket 4.2 23:44:33 10° NE 23:47:30 15° E 23:49:28 13° ESE
Cosmos 1461 4.5 23:46:27 10° NNW 23:50:12 32° NE 23:52:52 17° E
Gblst 52 Del rocket 4.1 23:49:00 43° SW 23:51:03 78° SSE 23:56:42 10° ENE
USA 215 4.2 23:45:06 10° NE 23:51:18 46° NNW 23:57:29 10° W
Cosmos 1844 Rocket 2.9 23:47:01 10° NW 23:52:24 49° WSW 23:53:01 47° SW
Cosmos 1726 3.9 23:51:35 10° NW 23:53:54 22° WNW 23:53:54 22° WNW
Cosmos 1674 3.1 23:56:22 52° ENE 23:56:22 52° ENE 23:59:42 10° NNE
